User: anonymous   Login
Location: Leiter
(44.7178°N, 106.2687°W)
Time: 10:55:04
(UTC+00:00)
Language:

SEEDS - Orbit

View from above orbital plane
View from above orbital plane
View from above satellite
View from above satellite

Ground track
Ground track

The orbit data is extracted from the following two-line orbital elements,

1 32791U 08021J   22179.90587257  .00001337  00000-0  13466-3 0  9994
2 32791  97.6117 155.8731 0013546 145.2401 214.9706 14.92718257768906
Epoch (UTC): 28 June 2022 21:44:27
Eccentricity: 0.0013546
inclination: 97.6117°
perigee height: 580 km
apogee height: 599 km
right ascension of ascending node: 155.8731°
argument of perigee: 145.2401°
revolutions per day: 14.92718257
mean anomaly at epoch: 214.9706°
orbit number at epoch: 76890

The dashed part of the orbit path shows where the satellite is in the earth's shadow,  

DLR